This is the latest recevied weather packets stored in our database for station/object KC5DAQ-29. If no packets are shown the sender has not sent any weather packets the latest 1 day(s).
| Time | Temp. | Humidity | Pressure | Rain* | Wind** | Luminosity | Snow |
|---|---|---|---|---|---|---|---|
| 1777984924 | 23.89° C | 100% | 1006.4 hPa | 0 mm | 0.45 m/s, 164° | 90 W/m² | - |
| 1777984863 | 23.89° C | 100% | 1006.2 hPa | 0 mm | 0.45 m/s, 203° | 67 W/m² | - |
| 1777984804 | 23.89° C | 100% | 1006.3 hPa | 0 mm | 0 m/s | 67 W/m² | - |
| 1777984743 | 23.89° C | 100% | 1006.3 hPa | 0 mm | 0.45 m/s, 141° | 67 W/m² | - |
| 1777984684 | 23.89° C | 100% | 1006.3 hPa | 0 mm | 0.45 m/s, 140° | 67 W/m² | - |
| 1777984623 | 23.33° C | 100% | 1006.4 hPa | 0 mm | 0.45 m/s, 154° | 67 W/m² | - |
| 1777984563 | 23.33° C | 100% | 1006.4 hPa | 0 mm | 0.45 m/s, 171° | 62 W/m² | - |
| 1777984503 | 23.33° C | 100% | 1006.5 hPa | 0 mm | 0.45 m/s, 149° | 51 W/m² | - |
| 1777984444 | 23.33° C | 100% | 1006.5 hPa | 0 mm | 0 m/s | 51 W/m² | - |
| 1777984381 | 23.33° C | 100% | 1006.5 hPa | 0 mm | 0 m/s | 44 W/m² | - |
| 1777984323 | 23.33° C | 100% | 1006.6 hPa | 0 mm | 0 m/s | 30 W/m² | - |
| 1777984263 | 23.33° C | 100% | 1006.4 hPa | 0 mm | 0.45 m/s, 162° | 25 W/m² | - |
| 1777984203 | 23.33° C | 100% | 1006.5 hPa | 0 mm | 0.45 m/s, 162° | 18 W/m² | - |
| 1777984142 | 23.33° C | 100% | 1006.4 hPa | 0 mm | 0.45 m/s, 203° | 18 W/m² | - |
| 1777984084 | 23.33° C | 100% | 1006.4 hPa | 0 mm | 0 m/s | 18 W/m² | - |
| 1777984023 | 23.33° C | 100% | 1006.2 hPa | 0 mm | 0 m/s | 18 W/m² | - |
| 1777983963 | 23.33° C | 100% | 1006.2 hPa | 0 mm | 0.45 m/s, 155° | 18 W/m² | - |
| 1777983903 | 23.33° C | 100% | 1006.2 hPa | 0 mm | 0.45 m/s, 154° | 18 W/m² | - |
| 1777983842 | 23.89° C | 100% | 1006.2 hPa | 0 mm | 0.45 m/s, 206° | 18 W/m² | - |
| 1777983782 | 23.89° C | 100% | 1006.2 hPa | 0 mm | 0.89 m/s, 159° | 18 W/m² | - |
| 1777983723 | 23.89° C | 100% | 1006.2 hPa | 0 mm | 0.89 m/s, 158° | 18 W/m² | - |
| 1777983662 | 23.89° C | 100% | 1006.1 hPa | 0 mm | 0.89 m/s, 152° | 14 W/m² | - |
| 1777983603 | 23.89° C | 100% | 1006.1 hPa | 0 mm | 1.34 m/s, 149° | 14 W/m² | - |
| 1777983542 | 23.33° C | 100% | 1006 hPa | 0 mm | 1.34 m/s, 212° | 14 W/m² | - |
| 1777983483 | 23.33° C | 100% | 1006.1 hPa | 0 mm | 0.89 m/s, 159° | 14 W/m² | - |
* Rain latest hour (hover to see other rain measurements)
** Current wind speed in m/s (hover to see current wind gust speed)